Tracking 22459 objects as of 3-Mar-2021
HD Live streaming from Space Station
objects crossing your sky now

TITAN 3C TRANSTAGE DEB

Track TITAN 3C TRANSTAGE DEB now!


NORAD ID: 36979
Int'l Code: 1965-108DK
Perigee: 1,177.1 km
Apogee: 31,261.1 km
Inclination: 27.0 °
Period: 563.2 minutes
Semi major axis: 22590 km
RCS: 0.0659 m2 (small)
Launch date: December 21, 1965
Source: United States (US)
Launch site: AIR FORCE EASTERN TEST RANGE (AFETR)

Note: This is SATELLITE DEBRIS
aabbcc
Your satellite tracking list
Your tracking list is empty




NASA's NSSDC Master Catalog

Two Line Element Set (TLE):
1 36979U 65108DK  21062.02422632 -.00000054  00000-0  00000-0 0  9996
2 36979  27.0300 298.1184 6658664 156.1773 358.9462  2.55696630150715
Source of the keplerian elements: AFSPC